Voltar ao catálogo

CZ-6A DEB

AtivoSSO
NORAD 54292·DEBRIS·🇨🇳 China

Lançado Nov 11, 2022 de Taiyuan Satellite Launch Center

Loading…

Próximas Passagens (próximas 24 horas)

TLE

AtualizadoSource: Space-Track

Época: Sep 14, 2026, 06:05 UTC

1 54292U 22151AK  26257.25347950  .00000059  00000-0  61255-4 0  9997
2 54292  98.8809 249.7815 0063126 115.6606 245.1101 14.05798240196443

Acompanhe CZ-6A DEB em tempo real com AllMySat

Download on the App Store